Regional Weather Roundup
Issued by NWS Newport/Morehead, NC

Home | Current Version | Previous Version | Text Only | Print | Product List | Glossary On
Versions: 1 2 3 4 5 6 7 8 9 10 11 12 13 14 15 16 17 18 19 20 21 22 23 24 25 26 27 28 29 30 31 32 33 34 35 36 37 38 39 40 41 42 43 44 45 46 47 48 49 50
000
ASUS42 KMHX 162214
RWRMHX
WEATHER ROUNDUP FOR EASTERN NORTH CAROLINA
NATIONAL WEATHER SERVICE NEWPORT/MOREHEAD CITY NC
600 PM EDT MON OCT 16 2017

NOTE: "FAIR" INDICATES FEW OR NO CLOUDS BELOW 12,000 FEET
WITH NO SIGNIFICANT WEATHER AND/OR OBSTRUCTIONS TO VISIBILITY

NCZ015>017-031-032-045>047-102-103-162300-
NORTH COAST

CITY           SKY/WX    TMP DP  RH WIND       PRES   REMARKS
EDENTON        CLOUDY    60  58  93 CALM      30.09R
ELIZABETH CITY LGT RAIN  60  56  86 N13       30.07R
KITTY HAWK     DRIZZLE   60  58  94 N12G22    30.03R
MANTEO         CLOUDY   N/A N/A N/A NE16G29   30.04R

$$

NCZ045>047-081-094-103-104-162300-
CENTRAL COAST

CITY           SKY/WX    TMP DP  RH WIND       PRES   REMARKS
FRISCO         CLOUDY    68  62  81 N12G29    30.01R

$$

NCZ095-097-098-100-101-162300-
SOUTHERN COAST

CITY           SKY/WX    TMP DP  RH WIND       PRES   REMARKS
BEAUFORT       HVY RAIN  61  60  97 N22G30    30.01R FOG
CEDAR ISLAND   NOT AVBL
JACKSONVILLE   CLOUDY    59  57  93 N17G24    30.05R
PINEY ISLAND   FLURRIES N/A N/A N/A N18G29    30.02R
WILMINGTON     CLOUDY    59  54  83 N20G29    30.05R


$$

NCZ011>013-027>030-043-044-078>080-089-090>093-098-162300-
COASTAL PLAIN

CITY           SKY/WX    TMP DP  RH WIND       PRES   REMARKS
AHOSKIE        CLOUDY    58  55  90 CALM      30.09S
CLINTON        CLOUDY    59  55  89 NE8G17    30.09R
ELIZABETHTOWN  NOT AVBL
GOLDSBORO      CLOUDY    58  54  86 N6        30.07S
GREENVILLE     CLOUDY    59  54  82 NE8       30.09S
HAVELOCK       LGT RAIN  61  60  97 N16       30.05S
KENANSVILLE    LGT RAIN  57  54  88 N15G28    30.08R
KINSTON        CLOUDY    57  54  88 NE15G23   30.09R
NEW BERN       CLOUDY    59  58  96 N14G21    30.07R
RICHLANDS      CLOUDY    57  54  89 N9        30.07R
ROCKY MOUNT    CLOUDY    60  56  86 N8        30.10R
WASHINGTON     LGT RAIN  58  55  89 N9        30.08R
WHITEVILLE     CLOUDY    59  53  80 N10       30.06R

$$

AMZ130-135-150-152-154-156-158-170-250-252-270-ANZ085-086-088-633-658-670-162300-
MARINE OBSERVATIONS

STATION/POSITION TIME  TEMP    WIND        PRES    WAVE   SWELL
                       AIR SEA DIR/SP/G            HT/PER HT/PER
                 (UTC) (F)     (DEG/KT/KT) (MB)    (FT/S) (FT/S)
CHESAPEAKE LIGHT NOT AVBL
64 E VA BEACH    2150   62 70  350/ 21/ 27 1017.3    7/ 6   2/10
DUCK             2136   61 72  360/ 27/ 31 1016.2
2 E DUCK         2200      72                N/A     6/ 6   2/11
OREGON INLET     2136   63 74  350/ 17/ 23 1016.6
13E OREGON INLT  2148      73                N/A     7/ 6   2/13
HATTERAS CG      2136   68 77   20/ 24/ 28 1015.9
DIAMOND BUOY     2150   70 81   10/ 23/ 29 1014.6    5/ 5   2/ 9
CAPE LOOKOUT     2200   64     350/ 21/ 25 1015.9
BEAUFORT LAB     2136   65 76  360/ 19/ 24 1016.9
30 SE NEW RVR IN 2108   71      10/ 23/ 33 1014.1
30 SE NEW RVR IN NOT AVBL
27 SE WRIGHTSVLE 2108   69 78   20/ 21/ 27 1014.4
5 SE WRIGHTSVLE  2108   66 77   10/ 17/ 31 1015.6
225 S CAPE HAT   2150   79 80  280/  4/  6 1013.6    3/ 8   3/ 8
41 SE CHARLESTON 2200   76 82  360/ 17/ 19 1013.7

$$




USA.gov is the U.S. government's official web portal to all federal, state and local government web resources and services.